Details From PATK - Talkeetna
To PAPG - Petersburg James A Johnson
Flight Number -
Tags Generated
Created
Modified
Stats Distance 615 nm / 1,140 km
Max Altitude 0 ft / 0 m
Waypoints 4
Social Downloads 0
Likes 0
Share VATSIM

Download

Looking for another format? Having issues loading an existing format? Contact us
Advertisement - Login to hide

Notes

Generated

Route

PATK WAPER BLOUT PAPG

ID Type Via Altitude Latitude Longitude Leg Dist Tot Dist Heading (true) Name
O PATK APT - 0 ft / 0 m 62.32478˚ -150.08901˚ - 0 nm - TALKEETNA
WAPER FIX - 0 ft / 0 m 59.62631˚ -140.15644˚ 331 nm 331 nm 115° / 124° -
BLOUT FIX - 0 ft / 0 m 56.79410˚ -132.98617˚ 283 nm 614 nm 124° / 130° -
O PAPG APT - 0 ft / 0 m 56.79894˚ -132.95942˚ 0 nm 615 nm 72° / 72° -

Altitude Profile

Advertisement - Login to hide

Weather


0- 5 10 15 20 25 30 35+ Temperature / ° C

Clouds and Precipitation
Forecast for 2018-05-22 18:00 UTC. Updated an hour ago

Ground ~20,000 ft ~40,000 ft Winds

PATK

Details ICAO PATK (TKA)
Name TALKEETNA
Region USA (Alaska)
Timezone America/Anchorage (UTC-8.0)
Stats Elevation 358 ft / 109 m (AMSL)
Location 62.320512° -150.093685°
Runways 1
Magnetic Variation 16.198° E

METAR

PATK 221753Z 00000KT 10SM BKN060 11/02 A2964 RMK SLP039 T01110022 10111 20072 51005 VIA AUTODIAL

Decode

TAF

PATK 221733Z 2218/2318 20005KT P6SM SCT050 BKN070 FM230200 19010G18KT P6SM BKN100 FM230700 18007KT P6SM SCT080 BKN120

Decode

Departure Runways

ID Width Length Bearing (true) Bearing (mag) Surface Threshold Offset Overrun Length
18 75 ft / 23 m 3,503 ft / 1,068 m 207.01° 190.81° Asphalt 0 ft / 0 m 0 ft / 0 m
36 75 ft / 23 m 3,503 ft / 1,068 m 27.01° 10.81° Asphalt 0 ft / 0 m 0 ft / 0 m

PAPG

Details ICAO PAPG (PSG)
Name PETERSBURG JAMES A JOHNSON
Region USA (Alaska)
Timezone America/Juneau (UTC-8.0)
Stats Elevation 105 ft / 32 m (AMSL)
Location 56.801651° -132.945289°
Runways 1
Magnetic Variation 18.752° E

METAR

PAPG 221756Z 10007KT 10SM FEW006 SCT030 OVC050 10/08 A2990 RMK AO2 RAE48 SLP129 P0001 60012 T01000078 10100 20094 51017

Decode

TAF

PAPG 221736Z 2218/2318 13005KT P6SM -SHRA SCT015 OVC030 FM222000 09005KT P6SM -SHRA SCT025 OVC035 FM230300 VRB03KT P6SM VCSH SCT025 OVC040 FM230900 VRB03KT P6SM FEW005 BKN040 AMD LTD TO CLD VIS AND WIND 2306/2315

Decode

Destination Runways

ID Width Length Bearing (true) Bearing (mag) Surface Threshold Offset Overrun Length
04 150 ft / 46 m 5,982 ft / 1,823 m 70.70° 51.95° Asphalt 0 ft / 0 m 0 ft / 0 m
22 150 ft / 46 m 5,982 ft / 1,823 m 250.73° 231.98° Asphalt 0 ft / 0 m 0 ft / 0 m

Approach Navaids

Runway Type Ident Frequency Range Bearing (true) Bearing (mag) Slope Elevation
22 Localiser IPSG 110.50 MHz 18 nm / 33 km 185.00° 166.25° - 151 ft / 46 m (AMSL)
22 DME IPSG 110.50 MHz 18 nm / 33 km - - - 164 ft / 50 m (AMSL)